Regional Weather Roundup
Issued by NWS

Home | Current Version | Previous Version | Graphics & Text | Print | Product List | Glossary On
Versions: 1 2 3 4 5 6 7 8 9 10 11 12 13 14 15 16 17 18 19 20 21 22 23 24 25 26 27 28 29 30 31 32 33 34 35 36 37 38 39 40 41 42 43 44 45 46 47 48 49 50
000
ASUS43 KMKX 210600
RWRWI

WISCONSIN REGIONAL WEATHER ROUNDUP
NATIONAL WEATHER SERVICE MILWAUKEE/SULLIVAN WI
100 AM CDT SAT OCT 21 2017

NOTE: "FAIR" INDICATES FEW OR NO CLOUDS BELOW 12,000 FEET WITH NO
SIGNIFICANT WEATHER AND/OR OBSTRUCTIONS TO VISIBILITY.

WIZ001-002-006>008-014>016-023>028-210700-
NORTHWEST WISCONSIN

CITY           SKY/WX    TMP DP  RH WIND       PRES   REMARKS
SUPERIOR ARPT  CLEAR     64  47  53 S8        29.71F
6HR MIN TEMP:  53; 6HR MAX TEMP:  68;

ASHLAND        MOCLDY    67  45  45 S15G25    29.76S
6HR MIN TEMP:  67; 6HR MAX TEMP:  71;

HAYWARD        PTCLDY    64  44  48 S13G21    29.79S
6HR MIN TEMP:  64; 6HR MAX TEMP:  69;

SIREN          CLOUDY    65  46  50 S14G20    29.75F
CUMBERLAND     CLOUDY    61  45  55 S12       29.80R
RICE LAKE      CLOUDY    65  45  48 S7G16     29.82R
CHETEK         CLOUDY    61  47  58 SE7       29.82S
LADYSMITH      PTCLDY    62  46  54 S8        29.85S
EAU CLAIRE     CLOUDY    66  45  46 S13       29.83R
6HR MIN TEMP:  65; 6HR MAX TEMP:  69;

MENOMONIE      CLOUDY    65  47  52 S15       29.81R
6HR MIN TEMP:  61; 6HR MAX TEMP:  67;

NEW RICHMOND   PTCLDY    64  47  54 S18G24    29.77S
OSCEOLA        PTCLDY    63  51  66 S9        29.78S
6HR MIN TEMP:  63; 6HR MAX TEMP:  69;

$$

WIZ003>005-009-010-017-018-210700-
NORTH CENTRAL WISCONSIN

CITY           SKY/WX    TMP DP  RH WIND       PRES   REMARKS
MANITOWISH WTR CLOUDY    60  44  54 S7        29.86S
ARBOR VITAE    MOCLDY    62  45  53 S13       29.88S
WOODRUFF       MOCLDY    62  45  53 S13       29.88S
RHINELANDER    MOCLDY    62  45  53 S15G23    29.90F
6HR MIN TEMP:  62; 6HR MAX TEMP:  67;

EAGLE RIVER    CLOUDY    61  41  48 S7        29.89F
LAND O LAKES   CLOUDY    61  43  50 S6        29.90S
6HR MIN TEMP:  61; 6HR MAX TEMP:  66;

PHILLIPS       CLOUDY    63  45  51 S12       29.85S
6HR MIN TEMP:  62; 6HR MAX TEMP:  66;

TOMAHAWK       CLOUDY    59  45  58 S3        29.90R
MEDFORD        CLOUDY    58  45  61 S9        29.88S
MERRILL        CLOUDY    63  46  54 S5        29.91S
6HR MIN TEMP:  63; 6HR MAX TEMP:  67;

$$

WIZ029-030-035-036-043>047-210700-
CENTRAL WISCONSIN

CITY           SKY/WX    TMP DP  RH WIND       PRES   REMARKS
WAUSAU         CLOUDY    63  46  54 S13       29.90S
6HR MIN TEMP:  62; 6HR MAX TEMP:  66;

MOSINEE        PTCLDY    61  46  59 S9        29.92S
MARSHFIELD     CLOUDY    63  44  50 S10       29.89S
6HR MIN TEMP:  59; 6HR MAX TEMP:  65;

STEVENS POINT  CLOUDY    62  44  52 S9        29.93S
WAUPACA        CLOUDY    64  48  54 S6        29.95R
WAUTOMA        CLOUDY    66  46  48 S9        29.94F
6HR MIN TEMP:  58; 6HR MAX TEMP:  66;

WISC RAPIDS    MOCLDY    66  45  46 S10       29.92S
6HR MIN TEMP:  62; 6HR MAX TEMP:  67;

CAMP DOUGLAS   NOT AVBL
$$

WIZ011>013-019>022-031-037>040-048>050-210700-
NORTHEAST WISCONSIN

CITY           SKY/WX    TMP DP  RH WIND       PRES   REMARKS
ANTIGO         MOCLDY    53  46  75 S6        29.94R
SHAWANO        CLOUDY    66  48  52 S6        29.94R
6HR MIN TEMP:  62; 6HR MAX TEMP:  69;

OCONTO         PTCLDY    59  51  74 S3        29.95R
STURGEON BAY   CLOUDY    59  51  75 S12       29.97F
6HR MIN TEMP:  58; 6HR MAX TEMP:  61;

GREEN BAY      CLOUDY    60  50  69 S6        29.97R
6HR MIN TEMP:  59; 6HR MAX TEMP:  65;

MANITOWOC      PTCLDY    56  51  84 S6        30.00R
6HR MIN TEMP:  55; 6HR MAX TEMP:  59;

APPLETON       CLOUDY    63  43  48 S16       29.95S
CLINTONVILLE   CLOUDY    64  46  52 S10       29.94S
OSHKOSH        CLOUDY    63  48  58 S14       29.96R
6HR MIN TEMP:  57; 6HR MAX TEMP:  66;

$$

WIZ032>034-041-042-053>061-210700-
SOUTHWEST WISCONSIN

CITY           SKY/WX    TMP DP  RH WIND       PRES   REMARKS
LA CROSSE      CLOUDY    67  47  48 S20       29.86S
6HR MIN TEMP:  62; 6HR MAX TEMP:  71;

SPARTA         CLOUDY    66  46  47 S9G20     29.90S
VIROQUA        CLOUDY    63  48  57 S12       29.91R
6HR MIN TEMP:  63; 6HR MAX TEMP:  67;

BOSCOBEL       MOCLDY    67  46  47 S9        29.92S
6HR MIN TEMP:  66; 6HR MAX TEMP:  71;

PRAIRIE DU CHI PTCLDY    65  45  47 SE9       29.90S
PLATTEVILLE    PTCLDY    64  48  57 S13       29.96S
$$

WIZ056-057-062-063-064-067-068-210700-
SOUTH CENTRAL WISCONSIN

CITY           SKY/WX    TMP DP  RH WIND       PRES   REMARKS
REEDSBURG      CLOUDY    65  46  48 S10       29.94R
6HR MIN TEMP:  65; 6HR MAX TEMP:  68;

BARABOO/DELLS  CLOUDY    65  43  45 S13       29.94S
LONE ROCK      NOT AVBL
MINERAL POINT  PTCLDY    64  46  52 S12       29.96S
MADISON        CLOUDY    64  46  52 S9        29.97F
6HR MIN TEMP:  63; 6HR MAX TEMP:  69;

MIDDLETON      CLOUDY    65  45  47 S14G22    29.97S
WATERTOWN      CLOUDY    63  47  55 S9        30.00R
MONROE         CLOUDY    63  45  51 S18       29.98F
JANESVILLE     CLOUDY    64  45  48 S14G20    29.99F
$$

WIZ051-052-058>065-066-070>072-210700-
SOUTHEAST WISCONSIN

CITY           SKY/WX    TMP DP  RH WIND       PRES   REMARKS
MILWAUKEE      CLOUDY    65  48  54 S12       30.02F
6HR MIN TEMP:  65; 6HR MAX TEMP:  69;

WAUKESHA       CLOUDY    63  45  51 S9        30.02F
MILWAUKEE/TIMM CLOUDY    64  43  45 S12       30.02S
RACINE         CLOUDY    66  48  52 S12G20    30.04S
6HR MIN TEMP:  61; 6HR MAX TEMP:  67;

BURLINGTON     CLOUDY    63  50  61 S12G17    30.02S
KENOSHA        CLOUDY    66  47  50 S10       30.03S
6HR MIN TEMP:  65; 6HR MAX TEMP:  67;

FOND DU LAC    MOCLDY    66  44  45 S13G20    29.98R
6HR MIN TEMP:  61; 6HR MAX TEMP:  68;

SHEBOYGAN      MOCLDY    57  50  77 S5        29.99S
6HR MIN TEMP:  53; 6HR MAX TEMP:  60;

WEST BEND      CLOUDY    64  43  45 SW10      30.00S
JUNEAU         CLOUDY    63  46  55 S10       30.00S
$$

LSZ147-162-210700-
LAKE SUPERIOR

STATION/POSITION TIME  TEMP    WIND        PRES    WAVE
                       AIR SEA DIR/SP/G            HT/PER
                 (UTC) (F)     (DEG/KT/KT) (MB)    (FT/S)
W MID LAKE BUOY  0450   59 52              1008.3F   1/ 3
DEVILS ISLAND    0500   66     180/ 10/ 13 1007.6F
PORT WING        0340          180/ 13/ 18 1007.1
SAXON HARBOR     0530   69     200/  9/ 17 1007.5S
$$

LMZ867-665-643>646-210700-
LAKE MICHIGAN

STATION/POSITION TIME  TEMP    WIND        PRES    WAVE
                       AIR SEA DIR/SP/G            HT/PER
                 (UTC) (F)     (DEG/KT/KT) (MB)    (FT/S)
S GREEN BAY BUOY 0500   62 58  170/ 14/ 16 1014.0
N MID LAKE BUOY  0450   63 58  180/ 19/ 21 1015.3R   5/ 6
NORTHPORT PIER   0540   60     180/  7/ 12 1014.6F
KEWAUNEE LAKESHO 0530   53     170/  6/  7 1014.4F
SHEBOYGAN LAKESH 0500   59     180/ 16/ 16 1015.4S
PORT WASHINGTON  0540   61     190/  5/  8 1016.6F
ATWATER BUOY     0409   60 53  170/  8/ 12 1016.3S
MILWAUKEE LAKESH 0530   66     200/ 12/ 14   N/A
S MID LAKE BUOY  0450   64 61  180/ 16/ 17 1017.5F   2/ 3
KENOSHA   LAKESH 0500   67     200/ 11/ 18 1016.6
$$

TC  - TEMPERATURE IN CELSIUS
VSB - VISIBILITY IN STATUTE MILES
WCI - WIND CHILL INDEX
HX  - HEAT INDEX





USA.gov is the U.S. government's official web portal to all federal, state and local government web resources and services.